Temperature
18 18 18 18 18 18 18 18 17 17 17 17 17 18 18 18 17 18 18 18 18 17 17 17 17 17 17 17 17 16 16 16 16 16 16 16 16 16 16 16 16 15 15
18 18 18 18 18 18 18 18 18 17 17 17 17 18 18 17 17 17 17 17 17 17 17 17 17 17 17 17 17 16 16 16 16 16 16 16 16 16 16 16 16 16 15
18 18 18 18 18 18 18 18 17 18 17 17 17 17 17 17 17 17 17 17 17 17 17 17 17 17 17 17 17 17 16 16 16 16 16 16 16 16 16 16 16 16 16
18 18 18 18 18 18 18 18 18 18 18 18 17 17 17 17 17 17 17 17 17 17 17 17 17 17 17 17 17 17 16 16 16 16 16 16 16 16 16 16 16 16 16
18 18 18 18 18 18 18 18 18 18 18 18 18 17 17 17 17 17 17 17 17 17 17 17 17 17 17 17 17 17 16 16 16 16 16 16 16 16 16 16 16 16 16
18 18 17 18 18 18 18 18 18 18 18 18 18 17 17 17 17 17 17 17 17 17 17 17 17 17 17 17 17 17 17 16 16 16 16 16 16 16 16 16 16 15 15
18 18 18 18 18 18 18 18 18 18 18 17 17 17 18 18 17 17 17 17 17 17 17 17 17 17 17 17 17 17 17 16 16 16 16 16 16 16 16 16 15 15 15
18 18 18 18 18 18 17 17 17 17 17 18 18 18 18 18 18 18 17 17 17 17 17 17 17 17 16 16 17 16 16 16 16 16 16 16 16 16 16 15 15 15 15
18 18 18 18 18 17 17 17 17 17 17 18 18 18 18 18 18 18 18 18 18 17 17 17 17 17 17 16 16 16 16 16 16 16 16 16 16 16 15 15 15 15 15
17 17 17 17 17 17 17 17 17 17 17 17 18 18 18 18 18 18 18 18 18 17 17 17 17 17 17 17 16 16 16 16 16 16 16 16 16 16 15 15 15 15 15
17 17 17 17 17 17 17 17 17 17 17 17 17 18 18 18 18 18 18 18 18 18 18 17 17 17 17 17 17 16 16 16 16 16 16 16 16 16 15 15 15 15 15
17 17 17 17 17 17 17 17 17 17 17 17 17 18 18 18 18 18 18 18 18 18 18 18 17 17 17 17 17 17 16 16 16 16 16 16 16 16 16 15 15 15 15
17 17 17 17 17 17 17 17 17 17 17 17 17 17 17 17 18 18 18 18 18 18 18 18 17 17 17 17 17 17 16 16 16 16 16 16 16 16 16 15 15 15 15
17 17 17 17 17 17 17 17 17 17 17 17 17 17 17 17 17 18 18 18 18 18 18 18 17 17 17 17 17 16 16 16 16 16 16 16 16 15 15 15 15 15 15
17 17 17 17 17 17 17 17 17 17 17 17 17 17 17 17 17 17 17 18 18 18 18 17 17 17 17 17 16 16 16 16 16 16 15 15 15 15 15 15 15 15 15
17 17 17 17 17 17 17 17 17 16 16 16 16 17 17 17 17 17 17 17 17 17 17 17 17 17 17 16 16 16 16 15 15 15 15 15 15 15 15 15 14 14 14
17 17 17 17 17 16 17 16 16 16 16 16 16 16 16 16 16 17 17 17 17 17 17 17 16 16 16 16 16 15 15 15 15 15 14 14 14 14 14 14 14 14 13
17 17 17 17 16 16 16 16 16 16 16 16 16 16 16 16 16 16 16 16 16 16 16 16 16 16 15 15 15 15 14 14 14 14 14 14 13 13 13 13 13 13 13
17 17 16 16 16 16 16 16 16 16 16 16 16 16 16 16 16 16 16 16 16 15 15 15 15 15 15 14 14 14 14 13 13 13 13 13 13 12 12 12 12 12 12
16 16 16 16 16 16 16 16 16 16 15 15 15 15 15 15 15 15 15 15 15 15 15 15 14 14 14 14 13 13 13 13 13 12 12 12 12 11 11 11 11 11 11
16 16 16 16 16 16 16 15 15 15 15 15 15 15 15 15 15 15 14 14 14 14 14 14 13 13 13 13 13 12 12 12 12 11 11 11 11 11 10 10 10 10 10
16 16 16 16 15 15 15 15 15 15 15 15 15 14 14 14 14 14 14 14 14 13 13 13 13 12 12 12 12 11 11 11 11 11 10 10 10 10 10 10 9 9 9
16 15 15 15 15 15 15 15 15 14 14 14 14 14 14 13 13 13 13 13 13 13 12 12 12 12 11 11 11 10 10 10 10 9 9 9 9 9 9 9 8 8 8
15 15 15 15 15 15 14 14 14 14 14 14 13 13 13 13 13 13 12 12 12 12 11 11 11 11 10 10 10 9 9 9 9 9 8 8 8 8 8 8 8 8 7
15 15 14 14 14 14 14 14 14 13 13 13 12 12 12 12 12 12 11 11 11 10 10 10 10 9 9 9 9 8 8 8 8 8 7 7 7 7 7 7 7 7 7
14 14 14 14 13 13 13 13 13 13 12 12 12 11 11 11 11 11 10 10 10 9 9 9 9 8 8 8 7 7 7 7 6 6 6 6 6 5 6 6 6 6 6
Wind_Speed
4 6 5 7 8 9 7 6 5 5 4 3 3 3 3 6 10 12 13 14 13 11 10 9 9 8 8 7 7 7 7 7 7 7 6 6 6 6 6 5 5 4 4
5 4 4 3 4 7 6 5 5 4 2 2 2 3 3 5 8 13 13 13 12 12 11 10 9 8 8 7 7 7 7 7 7 7 6 6 6 6 5 5 5 4 4
8 5 4 3 4 7 6 4 5 5 4 4 3 3 2 4 6 10 13 12 12 11 11 10 10 9 8 8 8 8 8 8 8 8 7 7 7 6 6 6 5 5 5
9 5 4 4 6 7 5 3 3 4 3 3 3 2 2 3 5 7 10 12 13 12 12 12 11 11 10 9 9 9 9 9 9 9 9 8 8 8 8 7 7 6 7
8 5 3 4 6 4 4 5 4 3 3 3 3 3 2 3 3 6 6 10 12 13 13 14 14 13 12 11 10 10 10 10 10 10 9 10 10 10 9 9 9 9 9
8 6 4 5 5 3 3 2 4 3 2 3 2 3 2 3 3 3 4 6 9 12 14 14 14 13 14 13 12 11 10 11 11 11 11 11 11 11 11 11 11 11 11
9 6 3 5 3 3 4 5 4 4 2 3 2 2 3 4 4 3 3 3 6 8 12 15 14 13 13 15 13 12 11 11 10 11 11 12 11 12 12 12 12 12 12
9 7 4 5 4 3 4 4 3 2 3 3 2 2 2 2 3 6 4 5 5 6 7 12 13 13 12 12 13 15 13 12 11 11 11 11 11 12 12 13 13 13 13
9 6 6 4 4 5 5 5 5 4 3 2 2 1 1 2 2 2 4 4 4 3 3 6 9 11 11 11 12 14 14 12 11 10 9 10 10 11 11 12 13 13 14
8 7 6 5 4 3 5 6 6 4 3 3 2 2 1 1 1 1 2 3 4 4 3 3 5 10 10 9 11 12 14 12 11 9 8 8 9 10 10 11 11 11 12
7 7 6 5 5 4 5 5 5 4 3 3 2 2 2 2 2 2 3 2 2 3 3 3 2 6 9 8 11 12 14 13 11 9 8 7 7 8 8 9 9 9 10
6 7 7 6 5 5 5 4 4 5 3 2 1 1 1 1 2 1 2 3 3 2 3 3 2 4 7 7 8 11 13 12 10 8 6 6 5 5 6 6 7 7 8
6 7 8 6 5 5 5 5 5 4 5 4 3 2 1 2 1 1 1 2 2 2 2 2 2 3 5 8 9 11 12 11 9 7 6 5 4 4 4 4 5 6 6
7 8 7 7 6 6 7 5 5 5 5 4 5 3 2 2 1 1 1 0 1 1 3 3 3 3 5 9 10 11 9 10 8 6 5 3 3 3 3 3 4 4 5
6 8 8 8 7 6 6 6 5 5 5 5 4 4 3 2 1 1 1 0 0 1 2 2 2 3 6 9 9 7 8 9 8 7 5 3 2 1 2 2 3 4 5
5 7 8 8 7 7 6 6 5 5 5 4 3 3 3 2 2 1 0 1 1 1 1 0 1 3 4 6 7 5 6 9 8 8 6 4 2 1 0 1 2 3 4
6 6 7 7 7 7 7 6 6 6 7 5 4 4 4 2 1 1 1 1 1 1 0 1 2 3 3 4 3 2 3 7 6 7 7 5 4 2 1 1 1 2 3
6 6 6 6 7 7 6 7 7 7 7 6 5 4 4 3 2 1 1 1 1 1 1 0 1 2 2 2 2 1 2 2 2 6 7 6 5 3 2 2 2 3 4
5 5 6 6 6 6 6 6 6 5 5 5 4 4 3 3 2 1 0 1 2 2 1 1 0 1 2 2 2 2 3 3 3 3 5 5 4 3 3 3 3 4 5
5 5 5 6 6 6 6 6 6 5 5 5 4 4 3 3 2 2 1 1 2 2 2 1 1 2 3 3 3 2 2 3 3 4 5 3 1 3 3 4 5 5 4
6 5 5 5 5 5 6 7 7 7 7 6 6 6 6 8 9 6 4 3 3 2 2 2 2 3 4 4 4 3 3 3 4 4 3 3 1 1 2 5 5 4 2
5 5 5 5 5 5 7 9 8 7 7 7 7 6 7 9 11 13 15 14 9 5 3 3 3 4 5 5 4 4 4 4 2 3 4 4 3 1 0 2 5 4 3
5 5 5 5 5 7 10 11 10 8 7 6 6 5 5 7 8 9 12 15 15 15 11 7 6 5 4 4 4 4 4 4 3 3 3 3 3 3 6 2 3 5 5
5 5 6 7 7 8 11 12 12 8 8 7 6 6 7 6 6 7 9 10 10 10 9 8 7 6 5 4 4 3 4 4 3 4 5 3 4 4 7 7 6 6 7
7 7 7 8 9 9 10 12 11 9 8 8 8 8 8 8 10 10 10 10 9 7 11 12 10 8 7 7 7 4 5 5 4 4 5 4 4 5 5 4 6 9 12
9 9 9 9 10 9 9 10 9 8 9 9 9 10 12 11 12 11 9 8 8 5 4 4 3 3 2 4 6 5 4 5 5 3 5 5 5 5 5 4 7 11 12
Wind_Direction
151 150 155 166 174 165 169 181 169 148 143 146 166 137 115 116 123 130 143 153 154 157 159 160 161 161 162 161 162 161 161 162 160 158 157 156 154 153 158 160 157 153 158
146 146 151 172 166 157 165 161 147 139 159 153 152 134 136 113 118 131 146 160 165 168 171 173 174 173 175 177 179 181 180 179 176 177 176 175 174 172 173 177 180 182 181
150 156 150 181 163 142 138 151 150 151 167 166 161 158 142 133 139 139 151 161 170 180 182 183 185 186 188 190 194 198 198 194 193 193 195 195 195 196 198 200 203 205 206
154 168 163 177 157 150 157 158 174 162 151 141 152 175 148 143 157 164 167 168 172 180 187 194 194 195 198 202 206 208 209 206 206 206 209 211 212 213 214 214 217 221 224
162 184 171 148 166 164 168 186 163 151 150 151 165 166 164 174 175 191 177 176 176 174 178 192 199 201 205 208 211 214 214 213 214 215 218 220 223 223 224 225 228 231 234
167 191 164 157 184 168 159 131 117 117 136 169 188 159 181 182 194 187 187 182 175 180 181 182 191 204 211 212 214 217 217 217 218 221 224 226 228 229 230 231 234 237 240
172 193 168 159 189 167 163 151 138 155 187 167 132 160 207 200 187 183 203 188 193 193 182 179 190 196 200 212 214 217 220 221 221 224 227 230 232 233 234 235 238 241 245
179 185 175 175 175 161 165 153 145 158 200 179 169 164 188 228 215 206 189 198 197 196 190 188 190 189 190 189 207 215 218 218 217 222 226 229 232 235 236 239 241 244 247
186 188 177 190 172 177 167 173 176 189 206 192 196 168 184 202 212 219 208 196 173 182 203 192 185 184 191 181 188 205 212 215 218 223 227 230 234 239 242 245 247 248 250
190 187 180 183 184 186 163 186 187 197 199 208 205 194 180 151 165 173 242 197 180 192 205 205 194 180 185 172 173 182 196 205 212 219 225 231 237 241 245 248 252 254 254
194 188 183 187 186 194 184 196 167 190 201 208 205 200 215 199 222 186 198 198 199 195 193 199 190 170 175 176 166 176 187 196 204 214 223 232 239 243 247 250 254 258 260
197 193 190 190 191 198 185 183 174 192 211 217 214 196 187 216 218 214 183 187 194 216 185 174 172 161 169 168 166 166 180 188 195 204 214 228 241 250 256 257 260 266 270
197 194 194 187 195 194 186 181 181 193 202 206 206 243 241 249 228 227 184 206 193 194 170 170 172 162 164 137 138 150 165 178 188 196 208 222 239 254 267 272 277 280 280
197 182 183 186 198 195 194 178 184 193 193 193 206 215 252 254 263 260 241 250 209 209 191 184 173 140 123 119 139 148 154 174 179 183 190 204 230 257 276 286 292 296 294
197 177 182 186 193 192 193 175 191 190 177 182 201 203 221 249 248 264 286 326 174 241 229 194 153 123 118 109 134 145 140 161 171 175 176 178 192 241 291 305 312 314 313
200 183 186 187 186 185 188 182 192 187 178 185 197 193 198 252 252 245 257 327 343 280 250 187 115 96 80 113 118 120 132 153 168 172 168 164 159 171 282 323 328 332 337
189 188 183 182 186 187 183 180 197 187 182 187 204 190 183 224 322 333 354 340 341 16 124 39 71 83 78 74 85 70 145 143 154 171 170 164 156 148 132 44 6 14 12
187 184 176 182 190 186 181 182 200 192 183 187 195 188 185 190 162 352 347 2 16 48 74 65 73 81 81 99 83 339 30 100 145 172 174 169 164 155 132 109 80 69 54
183 180 177 185 189 181 181 186 192 184 173 170 169 173 171 159 166 153 92 19 26 41 68 103 57 82 74 54 54 18 29 29 11 120 157 162 168 163 158 138 111 98 75
172 176 177 178 176 175 177 174 165 156 135 122 116 114 110 118 126 138 115 58 41 28 39 53 25 51 65 40 51 15 13 15 3 20 38 45 128 152 142 145 132 121 96
172 164 162 162 164 169 174 159 146 141 128 118 105 99 93 92 81 77 86 67 63 57 52 45 51 53 43 32 21 354 8 12 11 26 15 354 4 131 142 148 142 142 128
153 149 151 154 156 163 140 140 140 131 128 125 120 112 104 93 89 83 78 71 64 68 62 65 66 65 47 29 14 12 15 6 355 359 351 330 353 346 322 166 174 176 204
142 137 134 124 117 115 120 123 125 127 122 120 121 120 115 108 102 99 87 76 64 59 63 75 73 60 55 26 10 13 4 347 316 317 329 321 347 354 350 355 211 229 249
127 120 113 112 112 108 108 111 111 111 104 98 95 97 97 87 91 99 99 86 72 56 61 72 79 72 69 33 15 4 343 341 336 355 8 343 353 345 335 323 276 273 278
115 111 110 109 104 100 102 109 110 109 101 89 82 78 88 86 75 87 97 95 90 81 77 86 91 89 74 47 26 20 11 3 353 354 15 359 346 336 321 314 331 320 308
109 105 98 97 99 96 93 103 109 115 109 99 86 76 71 79 75 74 88 93 89 78 73 80 80 73 62 45 41 35 21 3 347 345 12 357 345 345 326 334 346 326 313
Height
1558 1560 1561 1563 1565 1566 1568 1570 1572 1573 1574 1576 1577 1579 1580 1581 1581 1582 1583 1584 1585 1585 1586 1587 1588 1589 1590 1591 1592 1593 1594 1595 1595 1596 1597 1598 1598 1599 1600 1600 1601 1601 1602
1558 1560 1561 1563 1565 1567 1569 1570 1572 1573 1575 1576 1578 1579 1581 1582 1582 1583 1583 1584 1585 1586 1586 1587 1588 1589 1590 1591 1592 1593 1594 1595 1595 1596 1597 1598 1598 1599 1600 1600 1601 1601 1602
1558 1560 1562 1563 1565 1567 1569 1571 1572 1574 1575 1576 1578 1579 1581 1582 1582 1583 1583 1584 1585 1586 1587 1588 1588 1589 1590 1591 1592 1593 1593 1594 1595 1596 1596 1597 1598 1599 1599 1600 1600 1601 1601
1557 1559 1561 1563 1565 1567 1568 1570 1572 1573 1575 1576 1578 1579 1580 1581 1582 1583 1583 1584 1585 1586 1587 1588 1588 1589 1590 1591 1591 1592 1593 1594 1594 1595 1596 1596 1597 1598 1598 1599 1599 1600 1600
1555 1558 1561 1562 1564 1566 1568 1570 1571 1573 1574 1576 1577 1578 1580 1581 1582 1583 1584 1584 1585 1586 1586 1587 1588 1589 1589 1590 1591 1591 1592 1593 1593 1594 1595 1595 1596 1596 1597 1598 1598 1599 1599
1554 1557 1559 1561 1563 1565 1567 1569 1570 1572 1574 1575 1577 1578 1579 1580 1581 1582 1583 1584 1585 1585 1586 1586 1587 1588 1589 1589 1590 1591 1591 1592 1592 1593 1593 1594 1594 1595 1595 1596 1596 1597 1597
1553 1555 1558 1560 1562 1564 1566 1568 1569 1571 1573 1575 1576 1577 1578 1579 1580 1581 1582 1583 1584 1585 1585 1586 1586 1587 1588 1588 1589 1589 1590 1590 1591 1591 1592 1592 1593 1593 1594 1594 1594 1595 1595
1551 1554 1556 1558 1561 1563 1565 1566 1568 1570 1572 1574 1575 1576 1577 1579 1579 1580 1581 1582 1583 1584 1585 1585 1586 1586 1587 1587 1588 1588 1588 1589 1589 1590 1590 1590 1591 1591 1591 1592 1592 1592 1593
1549 1552 1554 1557 1559 1561 1563 1565 1567 1569 1571 1573 1574 1576 1576 1577 1577 1579 1580 1581 1582 1583 1584 1585 1585 1586 1586 1586 1586 1587 1587 1587 1588 1588 1588 1589 1589 1589 1589 1590 1590 1590 1590
1547 1550 1552 1555 1557 1559 1561 1563 1565 1567 1570 1571 1573 1574 1575 1576 1577 1577 1579 1579 1580 1581 1582 1583 1584 1584 1585 1585 1585 1585 1586 1586 1586 1586 1587 1587 1587 1587 1587 1587 1587 1587 1587
1545 1547 1550 1552 1555 1557 1560 1562 1564 1566 1568 1569 1571 1572 1573 1575 1575 1576 1577 1578 1579 1580 1581 1581 1582 1583 1583 1583 1583 1584 1584 1584 1585 1585 1585 1585 1585 1585 1585 1585 1585 1585 1584
1542 1545 1547 1550 1552 1555 1557 1559 1561 1563 1565 1567 1569 1570 1572 1573 1574 1575 1575 1576 1577 1578 1579 1580 1581 1581 1582 1582 1582 1582 1582 1583 1583 1583 1583 1583 1583 1583 1582 1582 1582 1582 1582
1539 1542 1545 1547 1549 1552 1554 1556 1558 1561 1563 1565 1566 1568 1570 1571 1572 1573 1574 1575 1576 1577 1577 1578 1579 1580 1580 1580 1580 1581 1581 1581 1581 1581 1581 1581 1580 1580 1580 1580 1580 1579 1579
1535 1538 1541 1543 1546 1549 1551 1553 1556 1558 1560 1562 1564 1566 1568 1569 1571 1572 1573 1574 1574 1575 1576 1576 1577 1577 1578 1578 1578 1578 1579 1579 1579 1579 1578 1578 1578 1578 1577 1577 1577 1576 1576
1532 1535 1538 1540 1543 1545 1548 1550 1553 1555 1557 1559 1562 1564 1566 1567 1569 1570 1571 1572 1574 1574 1574 1575 1575 1576 1576 1576 1576 1576 1576 1577 1576 1576 1576 1575 1575 1575 1574 1574 1573 1573 1572
1529 1532 1534 1537 1539 1542 1545 1547 1549 1552 1555 1557 1559 1561 1563 1565 1567 1568 1569 1570 1571 1572 1572 1573 1573 1574 1574 1574 1574 1574 1574 1574 1574 1573 1573 1572 1572 1571 1570 1570 1569 1568 1568
1526 1528 1531 1533 1536 1539 1541 1544 1546 1549 1552 1554 1556 1558 1560 1562 1564 1565 1566 1567 1568 1569 1570 1571 1571 1572 1572 1572 1572 1572 1572 1571 1570 1570 1569 1569 1568 1568 1567 1566 1565 1564 1563
1523 1525 1528 1530 1533 1535 1538 1541 1543 1546 1549 1551 1553 1555 1557 1559 1560 1562 1563 1565 1566 1567 1568 1568 1569 1569 1569 1569 1570 1570 1569 1568 1568 1567 1566 1566 1565 1564 1563 1562 1561 1559 1558
1520 1522 1524 1527 1530 1532 1535 1538 1541 1543 1546 1548 1550 1552 1554 1556 1557 1559 1560 1562 1563 1564 1565 1565 1566 1566 1566 1566 1567 1567 1567 1566 1565 1564 1563 1562 1562 1560 1559 1558 1557 1556 1554
1517 1519 1522 1524 1527 1529 1532 1535 1538 1540 1543 1545 1547 1549 1551 1553 1554 1556 1557 1558 1560 1561 1562 1563 1563 1563 1563 1563 1563 1564 1563 1563 1563 1562 1560 1560 1558 1557 1556 1555 1554 1552 1551
1515 1517 1520 1522 1524 1527 1530 1532 1535 1538 1540 1542 1544 1547 1548 1550 1551 1553 1554 1555 1557 1558 1559 1560 1560 1560 1560 1560 1560 1560 1560 1559 1559 1559 1558 1557 1556 1554 1553 1551 1550 1549 1547
1513 1516 1518 1520 1522 1525 1528 1530 1533 1535 1538 1540 1542 1544 1546 1547 1549 1550 1552 1553 1554 1555 1556 1557 1557 1557 1557 1558 1558 1558 1557 1557 1556 1556 1555 1555 1554 1552 1550 1549 1547 1545 1543
1512 1514 1517 1518 1520 1523 1526 1529 1531 1534 1536 1538 1540 1542 1543 1545 1546 1548 1549 1550 1551 1553 1554 1555 1555 1555 1555 1555 1556 1555 1555 1554 1554 1553 1552 1551 1551 1549 1548 1545 1544 1542 1540
1511 1513 1515 1517 1520 1522 1524 1527 1530 1532 1534 1536 1538 1540 1542 1544 1545 1546 1547 1548 1549 1551 1552 1553 1553 1553 1554 1554 1554 1553 1553 1552 1552 1551 1550 1549 1547 1546 1544 1543 1541 1539 1537
1510 1512 1515 1517 1519 1521 1524 1526 1529 1531 1533 1535 1537 1539 1541 1542 1544 1545 1546 1547 1548 1550 1551 1552 1552 1552 1552 1552 1552 1551 1550 1550 1549 1548 1547 1546 1544 1542 1540 1539 1538 1535 1533
1510 1512 1514 1517 1519 1521 1524 1525 1528 1529 1531 1533 1536 1538 1540 1542 1543 1544 1546 1547 1548 1550 1551 1551 1552 1552 1551 1551 1551 1550 1549 1549 1547 1547 1545 1544 1542 1539 1537 1536 1534 1532 1530